Theta_e
300 299 299 299 299 299 299 299 299 299 300 300 301 302 303 304 305 307 308 310 311 314 318 321 324 328 331 334 336 339 341 341 341 340 338 338 338 337 338 338 337 337 336
298 298 297 297 297 298 298 298 298 298 298 299 299 299 300 302 303 304 306 308 309 311 314 317 320 321 325 327 330 334 338 340 340 340 338 337 337 336 336 337 336 336 336
297 296 296 296 296 297 297 297 296 297 296 297 297 297 298 300 301 302 303 305 307 308 310 312 315 317 319 321 322 325 328 332 335 336 338 338 337 336 336 335 335 335 335
296 295 295 295 295 295 295 295 295 294 295 295 295 296 297 298 299 300 301 303 304 306 307 309 311 313 315 317 319 320 321 323 327 331 334 335 337 337 336 335 335 334 334
294 294 294 294 294 293 293 293 293 293 293 293 294 295 296 296 298 298 299 301 303 304 305 307 308 309 311 314 316 318 319 320 321 327 330 333 331 336 336 335 335 334 334
293 293 292 292 292 292 291 292 291 293 293 293 292 293 295 296 297 298 300 301 303 305 306 307 307 306 307 310 313 315 318 319 320 321 325 328 330 331 334 335 335 335 334
292 292 291 291 291 290 290 291 291 291 292 294 292 293 294 297 297 297 299 302 301 299 300 301 303 304 304 306 307 311 314 317 319 320 321 324 327 328 328 331 333 335 334
291 291 290 290 290 289 289 289 290 289 291 292 289 290 289 293 296 296 298 298 297 298 299 299 300 300 301 302 302 306 308 311 313 316 318 318 320 323 325 326 329 329 334
290 290 289 289 289 289 288 288 289 288 287 290 291 289 287 286 288 295 295 295 295 297 297 298 297 298 299 300 301 302 303 307 310 312 313 314 316 318 320 324 326 329 333
289 289 289 289 288 289 288 288 289 289 289 287 290 292 291 290 285 284 292 293 295 294 295 297 297 297 298 300 299 299 301 303 304 305 307 309 312 315 318 320 323 326 328
288 287 288 287 287 288 288 288 288 288 289 288 287 288 288 289 289 286 284 288 292 294 295 294 296 297 297 298 299 299 301 300 300 301 303 304 306 309 313 318 320 324 326
287 286 287 287 287 287 287 287 287 287 287 287 288 288 287 286 286 286 285 286 286 290 293 294 294 295 297 298 297 297 297 298 299 299 300 302 303 305 309 312 317 320 322
286 285 286 286 287 287 287 287 287 287 287 287 287 288 288 288 288 288 286 285 285 288 290 293 295 295 295 296 295 294 295 295 296 297 298 300 302 304 306 308 312 316 319
285 285 286 286 286 286 287 287 287 287 288 288 287 288 288 288 289 288 286 285 282 285 287 288 294 295 294 293 293 293 294 293 294 295 296 298 300 302 304 306 309 314 316
285 286 286 285 285 286 286 286 286 286 287 287 287 288 287 288 289 289 288 288 285 281 282 287 287 291 292 293 293 292 292 292 293 294 295 297 299 302 303 304 306 311 316
285 285 285 285 285 285 286 287 287 287 287 288 288 287 287 288 288 289 289 289 288 285 282 287 287 289 290 290 291 291 291 289 290 292 293 294 298 299 299 302 304 308 313
284 284 284 285 285 285 286 286 287 287 286 287 287 287 286 287 287 288 289 289 288 287 283 286 288 289 287 287 288 289 290 289 289 291 293 295 296 297 298 300 302 304 307
284 283 284 284 284 284 285 285 286 287 286 285 284 284 285 287 287 288 288 288 287 288 285 283 286 287 287 287 286 286 287 288 288 290 292 293 293 295 296 298 299 300 301
280 281 283 283 282 281 282 285 286 286 286 284 284 284 285 286 286 287 287 287 287 287 286 284 284 286 287 287 287 287 287 288 287 288 289 289 291 292 294 296 297 297 297
278 279 280 279 278 278 283 285 286 286 284 283 283 284 285 285 285 285 285 285 286 285 285 285 285 285 287 287 287 286 285 287 285 285 286 286 287 288 290 292 295 295 297
279 276 275 276 276 279 284 286 286 284 282 281 281 283 284 285 285 286 286 286 286 285 285 284 284 285 285 286 285 286 285 286 286 284 285 283 282 284 285 287 293 295 298
280 274 275 275 275 280 283 286 286 282 281 281 280 283 284 284 285 286 287 286 288 286 285 285 285 284 285 284 285 283 284 284 284 285 284 283 282 282 283 285 294 295 296
273 275 273 274 275 277 281 284 285 282 280 279 279 280 281 284 284 285 283 285 286 287 286 284 283 282 281 282 282 281 283 284 282 282 283 282 282 282 283 283 293 294 293
274 275 274 273 273 275 280 283 284 279 277 276 277 278 280 282 284 284 282 281 281 282 282 283 282 282 283 282 282 281 282 282 281 282 282 281 282 283 284 284 288 292 292
273 274 275 274 273 274 279 282 283 278 278 277 276 277 279 282 284 285 282 281 280 279 281 282 282 282 281 281 281 280 284 282 282 280 281 282 281 283 284 282 282 285 291
275 276 276 273 272 275 278 281 282 279 277 277 275 276 279 283 283 284 281 280 279 279 277 277 276 276 276 277 278 276 276 282 281 281 280 282 279 278 282 282 280 280 282
Wind_Speed
4 3 4 4 5 5 5 6 6 7 8 9 9 9 10 10 10 7 7 12 17 19 20 21 22 22 22 23 24 26 27 28 27 28 28 29 29 29 29 27 28 27 27
4 4 4 4 4 4 4 5 6 6 7 8 9 9 10 10 10 11 8 10 17 19 21 22 23 24 24 24 25 25 29 31 29 29 30 30 30 30 30 29 30 27 27
5 4 3 3 4 4 5 5 6 6 7 7 9 9 9 10 10 11 10 9 10 16 17 20 21 23 23 25 26 27 28 30 26 26 32 31 32 32 32 32 30 29 31
5 4 3 3 4 4 5 5 5 6 6 7 8 9 9 9 11 11 10 9 8 9 12 16 19 20 21 23 25 27 29 30 27 25 21 35 34 33 33 33 32 33 30
5 4 3 3 5 4 5 5 6 5 7 8 9 9 9 9 9 8 10 10 9 9 8 12 16 16 18 19 21 23 26 29 30 24 24 25 25 32 35 35 34 35 33
4 4 3 4 4 4 5 5 6 5 6 8 10 8 8 7 6 4 6 6 7 8 8 9 8 9 16 18 19 21 23 24 27 28 24 23 21 23 43 35 37 37 36
4 4 3 3 4 5 5 6 5 7 5 8 6 6 5 4 6 6 6 5 8 9 10 10 8 7 8 18 18 21 22 23 26 25 26 25 24 23 20 28 34 40 36
4 3 3 3 4 3 5 6 6 4 3 8 6 4 5 2 6 7 4 5 10 9 10 10 11 12 10 9 13 21 22 23 24 23 22 23 23 22 19 18 19 21 38
3 3 3 3 3 3 3 4 4 6 4 4 7 3 4 4 10 4 9 6 14 8 10 12 13 12 12 11 13 14 19 21 22 22 22 22 21 20 20 21 21 21 23
3 3 3 3 2 2 3 3 4 3 3 4 4 4 5 6 4 6 4 9 4 12 12 10 11 13 14 10 13 15 17 18 22 22 22 21 21 21 21 19 20 20 17
3 3 3 2 2 1 3 3 3 4 3 3 3 4 5 4 6 5 9 6 9 8 9 10 11 10 13 13 10 11 16 21 22 22 23 23 22 21 19 20 19 19 17
2 2 2 2 1 2 3 3 3 4 4 3 3 3 3 3 4 6 7 12 13 7 9 9 9 9 10 10 11 13 18 23 23 24 23 22 23 23 21 19 20 18 19
1 1 1 1 1 2 3 3 3 3 3 3 4 4 4 6 6 7 8 10 7 10 5 8 7 7 9 6 9 15 18 23 26 26 24 23 22 22 21 20 20 19 19
2 2 0 1 2 3 3 3 2 3 3 3 6 6 5 6 6 6 6 8 10 6 8 12 6 7 5 8 13 18 15 24 26 26 27 25 23 21 22 21 20 20 19
2 3 1 0 1 2 2 3 2 3 3 4 5 6 6 6 6 6 6 6 6 9 12 4 6 6 10 10 12 14 15 20 26 26 25 23 22 20 21 21 20 21 20
3 3 2 1 1 3 2 3 3 3 3 4 4 6 6 6 6 5 5 6 6 8 9 9 8 11 10 11 12 12 14 20 22 21 22 21 19 18 20 21 20 20 21
4 3 3 3 3 3 2 3 3 3 4 5 6 6 7 8 5 5 5 6 6 6 10 10 9 9 11 10 12 11 10 11 10 18 18 18 16 16 18 20 19 19 19
4 3 3 3 3 2 2 2 3 4 5 6 7 7 7 5 6 6 5 7 7 8 8 14 11 8 11 10 11 12 10 9 9 12 15 15 15 16 16 18 19 18 18
4 3 3 3 3 0 1 2 4 4 4 5 5 6 7 7 6 5 6 7 6 6 7 8 10 10 8 8 10 8 10 10 5 10 12 15 16 18 19 21 21 19 16
5 4 3 2 3 1 2 2 3 3 2 3 5 6 6 7 7 8 7 7 7 6 7 7 8 10 8 7 5 10 11 8 6 5 7 14 17 19 22 23 20 18 15
5 4 3 2 2 1 2 2 1 3 4 4 3 5 5 7 11 10 7 8 7 6 5 6 7 8 9 8 9 8 8 9 3 6 5 7 7 8 11 17 17 20 17
5 4 4 4 4 2 4 4 2 2 3 3 4 4 6 6 9 13 15 16 13 7 6 5 6 7 9 8 6 8 7 7 5 5 6 6 7 8 9 11 24 26 26
5 6 5 4 5 4 5 3 3 1 2 3 3 5 5 5 8 7 12 14 8 9 8 4 6 6 8 7 8 9 7 4 2 4 4 5 6 7 8 11 28 29 30
6 5 5 5 4 4 7 5 3 2 1 2 3 3 5 7 8 7 8 8 8 5 7 5 6 7 7 8 8 8 8 1 1 1 3 3 5 7 8 9 27 28 28
5 5 4 6 5 5 7 6 3 1 0 2 2 3 4 6 10 11 6 8 7 5 8 10 9 9 11 11 11 6 1 1 1 2 4 2 4 4 7 9 11 25 27
5 5 6 5 5 5 6 7 4 2 1 2 2 2 5 6 8 9 4 6 6 7 6 7 6 6 9 8 12 7 4 2 1 1 2 1 2 3 3 6 9 10 10
Wind_Direction
65 53 43 32 27 15 14 2 354 348 341 337 333 324 316 309 303 296 294 292 292 292 291 289 289 293 293 299 289 271 257 245 237 229 223 221 219 219 217 215 215 213 212
62 48 38 32 25 13 6 3 349 339 333 330 323 318 311 307 301 296 295 296 292 293 294 294 294 292 292 293 293 294 281 271 244 236 227 221 222 221 218 215 219 218 217
66 63 52 32 11 8 5 356 348 338 325 326 317 314 306 300 297 296 292 286 292 292 293 296 297 298 297 294 290 290 292 294 292 281 236 227 222 222 220 219 215 217 219
66 63 46 29 9 5 3 356 347 331 326 327 321 313 303 298 294 294 294 300 302 302 304 307 309 310 308 303 298 295 292 290 290 298 280 257 233 228 225 223 217 216 214
66 64 50 25 13 13 13 356 346 338 326 327 319 314 305 297 301 309 313 308 307 306 311 314 317 319 319 315 310 301 296 294 294 293 293 275 290 239 229 225 220 216 206
64 64 52 34 22 17 13 0 340 337 316 321 319 314 303 307 309 317 325 328 342 349 348 348 347 342 338 338 333 332 319 304 297 293 287 288 290 280 246 230 221 216 213
71 75 57 35 25 24 10 0 341 345 349 346 328 333 335 4 49 6 344 24 36 10 360 354 350 349 343 343 342 335 332 323 326 309 298 312 305 283 302 281 270 213 219
74 82 52 36 27 13 10 6 7 353 341 5 345 328 340 342 6 343 42 20 7 348 354 359 349 338 332 325 320 324 327 324 319 318 318 312 305 312 305 296 286 282 241
80 70 59 43 18 11 1 359 8 18 347 354 4 346 335 336 342 335 344 5 347 355 340 327 324 323 321 320 318 320 324 328 324 322 323 318 316 313 308 297 285 308 222
76 61 51 35 12 353 351 354 17 1 359 350 355 33 341 316 336 318 305 322 344 329 323 320 320 318 316 311 312 305 306 325 329 328 328 329 332 325 311 303 295 274 277
83 58 52 39 20 4 7 12 357 350 354 341 346 332 316 294 268 272 302 320 313 322 311 323 311 309 312 311 308 312 324 326 323 321 323 322 322 319 310 301 293 288 262
116 63 58 33 11 13 13 13 355 344 329 314 289 289 294 300 303 293 297 309 310 311 314 299 300 309 308 305 318 325 323 326 323 322 320 314 311 310 307 304 296 289 285
158 122 110 349 15 14 356 354 345 323 300 284 287 282 281 274 285 292 297 301 298 310 305 303 304 301 304 323 321 321 325 323 318 316 314 314 312 305 303 300 298 277 274
159 159 155 358 12 6 4 338 318 301 287 290 288 285 284 281 279 278 287 298 305 290 303 307 311 318 334 330 320 323 317 315 313 311 308 304 305 305 303 301 300 294 280
160 166 191 299 26 35 352 295 280 288 293 287 279 279 279 278 272 270 273 280 294 313 319 331 330 333 318 313 309 308 310 306 308 308 305 304 304 305 310 306 297 302 284
163 180 204 142 56 52 318 307 295 298 299 305 290 288 293 292 281 274 269 272 271 285 290 328 315 305 304 308 301 300 305 305 305 307 310 308 305 314 311 307 302 294 296
165 185 203 114 59 18 6 328 321 321 322 311 305 298 297 297 280 273 268 267 268 272 282 297 302 304 302 292 302 305 306 310 302 305 310 314 320 323 323 318 312 301 296
161 172 195 131 93 34 347 336 338 343 324 340 335 319 306 300 283 278 273 273 270 276 280 295 308 307 302 303 297 300 316 310 307 312 322 330 334 338 333 330 322 307 291
169 182 202 153 109 9 312 325 334 322 337 338 306 306 310 322 317 311 295 286 277 278 274 280 295 305 300 306 315 318 322 316 334 339 350 353 350 354 352 345 339 323 296
170 168 210 173 118 260 245 264 299 293 324 322 319 316 315 316 314 312 297 285 278 276 274 276 287 303 304 312 303 326 333 337 347 341 2 7 357 357 357 342 345 337 319
181 162 191 205 213 189 238 270 290 348 323 318 329 305 296 307 307 313 308 301 287 272 268 278 289 297 314 326 335 330 316 323 356 357 357 14 349 353 355 346 1 2 7
181 179 188 218 226 216 242 286 353 355 330 314 318 323 319 311 322 324 328 314 302 279 273 272 287 298 311 326 326 324 320 331 346 40 349 9 1 4 353 353 26 31 39
175 202 202 204 241 237 233 243 333 3 312 311 313 329 324 321 320 324 340 334 352 15 14 336 308 316 319 345 323 317 320 312 322 347 332 3 351 15 8 7 35 42 49
189 189 212 203 214 259 249 228 244 128 208 293 303 312 313 326 328 341 347 348 345 358 348 341 318 311 311 324 310 289 287 274 217 22 354 20 346 21 16 20 27 40 46
184 189 197 195 201 229 243 246 245 169 261 305 308 305 309 317 328 352 349 340 341 345 343 353 356 350 346 349 350 310 285 276 353 34 28 67 4 14 27 19 13 21 44
193 182 201 203 203 223 222 225 213 189 271 284 300 298 306 328 340 351 5 339 336 344 342 348 3 10 7 6 21 16 331 296 141 121 12 118 15 349 44 14 16 13 16